CW3518 Weather Reports


time (UTC)temp
F
wind
direction
speed
knots
gust
knots
rain 1hr
in
rain 24hr
in
rain mn
in
humidity
%
barometer
mb
20260905214520 98 148 9.6 13.0 0.00 0.00 0.00 37 1011.4
20260905213520 97 182 4.3 12.2 0.00 0.00 0.00 37 1011.5
20260905213020 96 115 7.0 12.2 0.00 0.00 0.00 38 1011.5
20260905211520 98 152 1.7 11.3 0.00 0.00 0.00 37 1011.7
20260905211019 96 312 4.3 11.3 0.00 0.00 0.00 38 1011.7
20260905210450 96 119 7.8 7.8 0.00 0.00 0.00 38 1011.8
20260905205519 96 137 6.1 10.4 0.00 0.00 0.00 39 1012.0
20260905205019 95 140 9.6 10.4 0.00 0.00 0.00 40 1012.1
20260905204519 95 112 7.0 12.2 0.00 0.00 0.00 40 1012.1
20260905204019 95 105 7.0 12.2 0.00 0.00 0.00 40 1012.2
20260905203519 96 136 6.1 8.7 0.00 0.00 0.00 38 1012.3
20260905202519 96 199 8.7 11.3 0.00 0.00 0.00 38 1012.4
20260905202020 97 165 9.6 10.4 0.00 0.00 0.00 38 1012.5
20260905201519 96 91 4.3 11.3 0.00 0.00 0.00 39 1012.6
20260905201019 95 135 3.5 11.3 0.00 0.00 0.00 40 1012.7
20260905200519 95 170 6.1 11.3 0.00 0.00 0.00 40 1012.7
20260905200019 97 120 6.1 14.8 0.00 0.00 0.00 38 1012.8
20260905195519 96 145 2.6 14.8 0.00 0.00 0.00 39 1012.8
20260905195020 96 113 11.3 13.0 0.00 0.00 0.00 39 1012.8
20260905194518 97 110 7.0 13.0 0.00 0.00 0.00 39 1012.9
20260905193948 96 126 4.3 9.6 0.00 0.00 0.00 40 1013.1
20260905193519 95 160 4.3 9.6 0.00 0.00 0.00 41 1013.1
20260905193019 94 117 7.0 9.6 0.00 0.00 0.00 41 1013.2
20260905192518 95 132 5.2 10.4 0.00 0.00 0.00 41 1013.3
20260905192018 95 103 0.9 14.8 0.00 0.00 0.00 41 1013.3
20260905191449 95 133 10.4 14.8 0.00 0.00 0.00 41 1013.4
20260905191018 96 126 5.2 9.6 0.00 0.00 0.00 41 1013.5
20260905190448 95 225 9.6 9.6 0.00 0.00 0.00 42 1013.6
20260905190018 93 92 8.7 9.6 0.00 0.00 0.00 43 1013.6
20260905185518 94 139 1.7 13.0 0.00 0.00 0.00 42 1013.7
20260905185018 94 118 2.6 13.0 0.00 0.00 0.00 42 1013.9
20260905184518 95 110 7.8 11.3 0.00 0.00 0.00 42 1013.9
20260905184018 94 111 11.3 11.3 0.00 0.00 0.00 43 1014.0
20260905183518 93 90 6.1 9.6 0.00 0.00 0.00 44 1014.1
20260905183018 94 118 4.3 9.6 0.00 0.00 0.00 42 1014.2
20260905182518 95 125 7.8 12.2 0.00 0.00 0.00 41 1014.1
20260905182018 95 154 2.6 12.2 0.00 0.00 0.00 41 1014.2
20260905181518 95 114 7.8 13.9 0.00 0.00 0.00 40 1014.2
20260905181018 94 206 5.2 13.9 0.00 0.00 0.00 41 1014.3
20260905180517 94 129 3.5 13.9 0.00 0.00 0.00 41 1014.4
20260905175517 94 114 2.6 10.4 0.00 0.00 0.00 42 1014.5
20260905175017 94 121 4.3 9.6 0.00 0.00 0.00 41 1014.6
20260905174518 93 117 7.0 12.2 0.00 0.00 0.00 42 1014.7
20260905174018 93 242 1.7 12.2 0.00 0.00 0.00 44 1014.8
20260905173517 94 144 8.7 11.3 0.00 0.00 0.00 42 1014.7
20260905172518 92 122 10.4 11.3 0.00 0.00 0.00 45 1014.9
20260905172017 93 182 6.1 7.8 0.00 0.00 0.00 45 1014.9
20260905171517 92 188 3.5 8.7 0.00 0.00 0.00 46 1015.1
20260905171017 93 294 1.7 8.7 0.00 0.00 0.00 45 1015.0
20260905170517 92 79 5.2 7.8 0.00 0.00 0.00 46 1015.1
20260905170017 93 160 6.1 8.7 0.00 0.00 0.00 45 1015.0
20260905165517 91 222 5.2 11.3 0.00 0.00 0.00 47 1015.1
20260905165017 92 188 6.1 11.3 0.00 0.00 0.00 46 1015.1
20260905164017 92 124 2.6 11.3 0.00 0.00 0.00 46 1015.1
20260905163517 92 156 7.8 11.3 0.00 0.00 0.00 47 1015.0
20260905163017 91 330 3.5 7.8 0.00 0.00 0.00 48 1015.1
20260905162517 92 86 7.8 7.8 0.00 0.00 0.00 47 1015.1
20260905162017 92 89 2.6 6.1 0.00 0.00 0.00 49 1015.1
20260905161516 92 238 1.7 6.1 0.00 0.00 0.00 49 1015.2
20260905160017 89 311 2.6 7.8 0.00 0.00 0.00 54 1015.2
20260905155016 89 203 2.6 7.0 0.00 0.00 0.00 54 1015.3
20260905154516 89 153 4.3 7.8 0.00 0.00 0.00 55 1015.3
20260905154016 89 349 0.9 7.8 0.00 0.00 0.00 57 1015.3
20260905153516 89 263 1.7 6.1 0.00 0.00 0.00 57 1015.3
20260905153016 88 270 0.9 8.7 0.00 0.00 0.00 59 1015.3
20260905152516 87 237 6.1 8.7 0.00 0.00 0.00 59 1015.3
20260905152016 87 250 6.1 8.7 0.00 0.00 0.00 59 1015.3
20260905151016 87 221 6.1 7.8 0.00 0.00 0.00 61 1015.2
20260905150516 87 238 3.5 7.0 0.00 0.00 0.00 62 1015.2
20260905145516 86 266 3.5 7.8 0.00 0.01 0.00 64 1015.2
20260905145018 86 250 6.1 9.6 0.00 0.01 0.00 64 1015.2
20260905144515 86 228 3.5 10.4 0.00 0.02 0.00 65 1015.2
20260905144015 85 235 6.1 10.4 0.00 0.03 0.00 66 1015.1
20260905143016 85 248 7.8 9.6 0.00 0.03 0.00 67 1015.1
20260905142515 84 299 5.2 6.1 0.00 0.03 0.00 68 1015.1
20260905142015 84 243 6.1 8.7 0.00 0.03 0.00 69 1015.1
20260905141515 83 241 4.3 8.7 0.00 0.03 0.00 71 1015.1
20260905140515 83 195 5.2 7.0 0.00 0.03 0.00 72 1015.0
20260905140015 82 237 5.2 8.7 0.00 0.03 0.00 73 1015.0
20260905135515 82 229 4.3 8.7 0.00 0.03 0.00 75 1015.0
20260905135015 82 221 7.8 8.7 0.00 0.03 0.00 75 1015.0
20260905134515 81 219 6.1 6.1 0.00 0.03 0.00 76 1015.0
20260905134015 81 205 4.3 5.2 0.00 0.03 0.00 77 1015.0
20260905133515 81 196 3.5 5.2 0.00 0.03 0.00 77 1015.0
20260905132014 79 217 5.2 5.2 0.00 0.03 0.00 80 1014.9
20260905131514 79 202 3.5 3.5 0.00 0.03 0.00 80 1014.9
20260905131014 79 172 1.7 4.3 0.00 0.03 0.00 81 1014.9
20260905130514 78 135 2.6 4.3 0.00 0.03 0.00 82 1014.9
20260905130014 78 102 2.6 3.5 0.00 0.03 0.00 83 1014.8
20260905125514 77 68 2.6 3.5 0.00 0.03 0.00 83 1014.8
20260905125014 77 42 2.6 2.6 0.00 0.03 0.00 84 1014.8
20260905124514 77 7 2.6 2.6 0.00 0.03 0.00 84 1014.7
20260905123514 77 322 2.6 3.5 0.00 0.03 0.00 85 1014.6
20260905123014 76 262 3.5 3.5 0.00 0.03 0.00 86 1014.5
20260905122514 76 259 3.5 3.5 0.00 0.03 0.00 86 1014.4
20260905122014 77 259 2.6 4.3 0.00 0.03 0.00 85 1014.5
20260905121514 77 245 3.5 4.3 0.00 0.03 0.00 85 1014.4
20260905121014 77 233 4.3 4.3 0.00 0.03 0.00 85 1014.4
20260905120514 76 229 4.3 4.3 0.00 0.03 0.00 86 1014.4
20260905120014 76 241 3.5 4.3 0.00 0.03 0.00 85 1014.4
20260905115514 76 228 3.5 4.3 0.00 0.03 0.00 85 1014.3
20260905115014 76 228 4.3 5.2 0.00 0.03 0.00 85 1014.1
20260905114513 76 233 4.3 5.2 0.00 0.03 0.00 84 1014.1
20260905114013 77 228 4.3 5.2 0.00 0.03 0.00 84 1014.0
20260905113513 77 221 4.3 5.2 0.00 0.03 0.00 84 1014.0
20260905113013 77 225 5.2 5.2 0.00 0.03 0.00 84 1014.0
20260905112513 77 227 4.3 5.2 0.00 0.03 0.00 83 1014.0
20260905112013 77 206 4.3 5.2 0.00 0.03 0.00 83 1014.0
20260905111513 77 212 4.3 4.3 0.00 0.03 0.00 83 1014.1
20260905111013 77 216 3.5 4.3 0.00 0.03 0.00 83 1014.1
20260905110513 77 225 3.5 3.5 0.00 0.03 0.00 83 1014.2
20260905110013 78 235 3.5 3.5 0.00 0.03 0.00 82 1014.3
20260905105513 78 243 3.5 4.3 0.00 0.03 0.00 82 1014.2
20260905105013 78 241 2.6 4.3 0.00 0.03 0.00 81 1014.2
20260905104012 78 176 4.3 7.0 0.00 0.03 0.00 81 1014.0
20260905103512 78 172 5.2 7.0 0.00 0.03 0.00 81 1013.9
20260905103013 78 163 5.2 6.1 0.00 0.03 0.00 81 1013.9
20260905102512 78 167 4.3 6.1 0.00 0.03 0.00 81 1014.0
20260905102013 78 155 4.3 6.1 0.00 0.03 0.00 81 1014.0
20260905101512 78 148 5.2 6.1 0.00 0.03 0.00 81 1013.9
20260905101012 78 144 5.2 6.1 0.00 0.03 0.00 80 1013.9
20260905100512 78 147 5.2 5.2 0.00 0.03 0.00 80 1014.0
20260905100012 79 156 4.3 4.3 0.00 0.03 0.00 79 1014.0
20260905095512 79 165 3.5 5.2 0.00 0.03 0.00 79 1014.0
20260905095012 79 191 4.3 5.2 0.00 0.03 0.00 78 1014.0
20260905094512 79 163 4.3 5.2 0.00 0.03 0.00 78 1014.1
20260905094012 79 191 3.5 5.2 0.00 0.03 0.00 78 1014.1
20260905093512 79 204 2.6 4.3 0.00 0.03 0.00 78 1014.1
20260905093012 79 202 2.6 4.3 0.00 0.03 0.00 77 1014.1
20260905092012 80 205 3.5 6.1 0.00 0.03 0.00 77 1014.0
20260905091512 80 212 5.2 6.1 0.00 0.03 0.00 76 1014.0
20260905091011 80 210 5.2 6.1 0.00 0.03 0.00 76 1013.9
20260905090511 80 210 6.1 6.1 0.00 0.03 0.00 76 1013.9
20260905090012 79 220 5.2 6.1 0.00 0.03 0.00 76 1013.8
20260905085511 79 228 5.2 6.1 0.00 0.03 0.00 76 1013.7
20260905085012 80 231 5.2 6.1 0.00 0.03 0.00 76 1013.6
20260905084511 80 230 5.2 6.1 0.00 0.03 0.00 76 1013.6
20260905084012 80 231 6.1 6.1 0.00 0.03 0.00 75 1013.6
20260905083511 80 233 6.1 7.0 0.00 0.03 0.00 75 1013.6
20260905082511 80 223 5.2 7.0 0.00 0.03 0.00 74 1013.7
20260905082011 80 225 6.1 7.0 0.00 0.03 0.00 74 1013.6
20260905081511 80 224 6.1 7.0 0.00 0.03 0.00 73 1013.6
20260905081011 81 226 6.1 6.1 0.00 0.03 0.00 73 1013.6
20260905080511 81 230 4.3 6.1 0.00 0.03 0.00 73 1013.6
20260905075510 81 221 5.2 6.1 0.00 0.03 0.00 72 1013.7
20260905074011 81 237 4.3 6.1 0.00 0.03 0.00 70 1013.9
20260905073511 82 231 5.2 6.1 0.00 0.03 0.00 69 1013.9
20260905073010 82 223 6.1 7.8 0.00 0.03 0.00 68 1013.9
20260905072510 82 224 5.2 7.8 0.00 0.03 0.00 68 1013.9
20260905071511 83 214 6.1 7.8 0.00 0.03 0.00 66 1013.9
20260905070510 83 199 5.2 6.1 0.00 0.03 0.00 65 1013.9
20260905070010 84 203 5.2 6.1 0.00 0.03 0.00 65 1014.0
20260905065510 84 197 3.5 6.1 0.00 0.03 0.00 64 1014.0
20260905065010 84 185 4.3 6.1 0.00 0.03 0.00 64 1014.0
20260905064510 84 200 5.2 5.2 0.00 0.03 0.00 63 1014.0
20260905064010 84 185 3.5 5.2 0.00 0.03 0.00 63 1014.0
20260905063010 85 186 5.2 6.1 0.00 0.03 0.00 62 1014.0
20260905062510 85 194 4.3 7.0 0.00 0.03 0.00 62 1014.0
20260905061009 85 195 7.0 9.6 0.00 0.03 0.00 60 1013.9
20260905060009 86 170 7.0 9.6 0.00 0.03 0.00 60 1013.7
20260905055509 86 191 6.1 8.7 0.00 0.03 0.00 60 1013.7
20260905055009 86 184 6.1 8.7 0.00 0.03 0.00 60 1013.7
20260905054509 86 204 7.8 8.7 0.00 0.03 0.00 60 1013.7
20260905054010 86 194 6.1 8.7 0.00 0.03 0.00 60 1013.7
20260905053509 86 189 7.0 7.8 0.00 0.03 0.00 60 1013.7
20260905053009 86 190 6.1 7.8 0.00 0.03 0.00 60 1013.7
20260905052509 86 197 6.1 7.8 0.00 0.03 0.00 59 1013.7
20260905052009 86 178 4.3 7.8 0.00 0.03 0.00 59 1013.6
20260905051509 86 177 6.1 7.8 0.00 0.03 0.00 59 1013.5
20260905051010 86 181 6.1 7.0 0.00 0.03 0.00 58 1013.5
20260905050508 86 189 5.2 7.0 0.00 0.03 0.00 58 1013.6
20260905050008 86 180 6.1 7.8 0.00 0.03 0.00 57 1013.5
20260905045008 87 164 6.1 10.4 0.00 0.03 0.03 56 1013.5
20260905044509 87 160 7.8 10.4 0.00 0.03 0.03 56 1013.5
20260905044008 87 162 8.7 9.6 0.00 0.03 0.03 55 1013.5
20260905043509 87 163 8.7 9.6 0.00 0.03 0.03 55 1013.5
20260905043008 87 159 8.7 10.4 0.00 0.03 0.03 54 1013.5
20260905041509 87 142 6.1 7.8 0.00 0.03 0.03 52 1013.5
20260905041008 88 143 7.0 8.7 0.00 0.03 0.03 52 1013.4
20260905040008 88 140 7.8 9.6 0.00 0.03 0.03 52 1013.4
20260905035508 88 143 7.8 9.6 0.00 0.03 0.03 52 1013.4
20260905035008 88 143 7.8 7.8 0.00 0.03 0.03 52 1013.5
20260905034008 88 138 6.1 10.4 0.00 0.03 0.03 51 1013.4
20260905033509 89 137 8.7 9.6 0.00 0.03 0.03 51 1013.3
20260905033008 89 141 7.0 9.6 0.00 0.03 0.03 51 1013.3
20260905032009 89 146 7.0 11.3 0.00 0.03 0.03 51 1013.3
20260905031507 89 131 7.0 11.3 0.00 0.03 0.03 51 1013.3
20260905031007 89 140 7.8 11.3 0.00 0.03 0.03 51 1013.3
20260905030007 89 141 8.7 9.6 0.00 0.03 0.03 51 1013.2
20260905024007 89 135 7.8 10.4 0.00 0.03 0.03 52 1013.0
20260905023507 89 133 9.6 11.3 0.00 0.03 0.03 51 1012.9
20260905023007 90 134 7.8 11.3 0.00 0.03 0.03 51 1012.9
20260905022507 90 140 9.6 11.3 0.00 0.03 0.03 51 1012.8
20260905020506 90 138 11.3 13.0 0.00 0.03 0.03 51 1012.5
20260905020006 90 135 8.7 13.0 0.00 0.03 0.03 51 1012.5
20260905015507 90 128 6.1 7.8 0.00 0.03 0.03 52 1012.5
20260905015007 90 117 6.1 8.7 0.00 0.03 0.03 52 1012.4
20260905014506 90 123 6.1 8.7 0.00 0.03 0.03 52 1012.3
20260905014006 91 115 6.1 9.6 0.00 0.03 0.03 51 1012.2
20260905013506 91 121 7.8 9.6 0.00 0.03 0.03 51 1012.2
20260905013006 91 114 7.8 8.7 0.00 0.03 0.03 50 1012.0
20260905012506 91 113 7.8 8.7 0.00 0.03 0.03 49 1012.0
20260905012006 91 112 7.0 8.7 0.00 0.03 0.03 47 1012.0
20260905011006 92 121 6.1 7.8 0.00 0.03 0.03 46 1011.9
20260905010006 93 128 7.8 7.8 0.00 0.03 0.03 45 1011.8
20260905004506 93 145 6.1 8.7 0.00 0.03 0.03 43 1011.7
20260905003506 94 140 6.1 7.8 0.00 0.03 0.03 42 1011.5
20260905003006 95 155 5.2 10.4 0.00 0.03 0.03 42 1011.4
20260905002505 95 160 5.2 10.4 0.00 0.03 0.03 42 1011.3
20260905002005 95 168 7.0 9.6 0.00 0.03 0.03 41 1011.2
20260905001505 95 158 6.1 9.6 0.00 0.03 0.03 41 1011.2
20260905001005 96 166 9.6 11.3 0.00 0.03 0.03 41 1011.2
20260905000505 96 159 7.8 13.0 0.00 0.03 0.03 40 1011.2
20260905000006 96 155 13.0 13.0 0.00 0.03 0.03 40 1011.2
20260904235506 96 149 12.2 13.0 0.00 0.03 0.03 40 1011.2
20260904235005 96 164 10.4 13.0 0.00 0.03 0.03 40 1011.2
20260904234506 96 165 8.7 14.8 0.00 0.03 0.03 40 1011.2
20260904234005 96 152 7.0 14.8 0.00 0.03 0.03 40 1011.2
20260904233505 96 138 12.2 12.2 0.00 0.03 0.03 41 1011.2
20260904233005 96 127 10.4 13.0 0.00 0.03 0.03 40 1011.1
20260904232505 97 138 13.0 13.9 0.00 0.03 0.03 40 1011.1
20260904232006 97 168 7.8 13.9 0.00 0.03 0.03 40 1011.1
20260904231505 97 156 11.3 13.0 0.00 0.03 0.03 40 1011.1
20260904231005 97 171 6.1 10.4 0.00 0.03 0.03 40 1011.2
20260904230505 97 142 7.0 13.0 0.00 0.03 0.03 40 1011.2
20260904230005 96 172 7.0 17.4 0.00 0.03 0.03 40 1011.2
20260904225505 97 161 9.6 17.4 0.00 0.03 0.03 40 1011.2
20260904225005 97 111 11.3 15.6 0.00 0.03 0.03 40 1011.2
20260904224505 97 168 7.0 15.6 0.00 0.03 0.03 40 1011.3
20260904224005 97 144 6.1 11.3 0.00 0.03 0.03 40 1011.3
20260904223505 96 121 11.3 11.3 0.00 0.03 0.03 40 1011.3
20260904223035 97 150 8.7 13.0 0.00 0.03 0.03 39 1011.4
20260904222505 97 159 13.0 16.5 0.00 0.03 0.03 39 1011.4
20260904222006 97 138 12.2 16.5 0.00 0.03 0.03 39 1011.4
20260904221006 97 205 13.9 14.8 0.00 0.03 0.03 40 1011.4
20260904220505 97 183 11.3 13.0 0.00 0.03 0.03 40 1011.4
20260904220005 97 197 7.0 13.0 0.00 0.03 0.03 41 1011.5
20260904215505 97 190 9.6 13.0 0.00 0.03 0.03 41 1011.5
20260904215005 97 143 7.8 13.9 0.00 0.03 0.03 41 1011.5